Tracking 27086 objects as of 22-Mar-2023
HD Live streaming from Space Station
objects crossing your sky now

STARLINK-2685

Track STARLINK-2685 now!
10-day predictions
STARLINK-2685 is classified as:


NORAD ID: 48468
Int'l Code: 2021-040AS
Perigee: 553.7 km
Apogee: 555.2 km
Inclination: 53.1 °
Period: 95.6 minutes
Semi major axis: 6925 km
RCS: Unknown
Launch date: May 9, 2021
Source: United States (US)
Launch site: AIR FORCE EASTERN TEST RANGE (AFETR)
Your satellite tracking list
Your tracking list is empty




NASA's NSSDC Master Catalog

Two Line Element Set (TLE):
1 48468U 21040AS  23081.19500430  .00035576  00000-0  23971-2 0  9993
2 48468  53.0544  15.6129 0001045 134.8903 225.2171 15.06371047104464
Source of the keplerian elements: AFSPC